COSMOS 1275 DEB

Satellite information

Favourite Embed

Satellite Type and Status

DEBRISIN ORBIT

Key statistics

Satellite COSMOS 1275 DEB at a glance.

Uptime

16042

Days in orbit

Revolutions

≈ 13.7

Per day

Orbit

LEO

Low Earth Orbit

Inclination

83.0

Latest

Satellite identification and parameters

Extended collection of information and parameters for COSMOS 1275 DEB.

Object identification

Identified? True

Debris? True

Object name: COSMOS 1275 DEB

International designator: 1981-053DY

Object number (NORAD): 12782

Object ID (CCSDS): 12782

Country: COMMONWEALTH OF INDEPENDENT STATES (CIS)

Current information (Y/N): Y

RCS size: SMALL

Orbital parameters

Period: 104.814 minutes

Inclination: 83.0012 deg

SMA: 7363.853 km

Apoapsis: 1040.418 km

Periapsis: 931.018 km

RAAN: 46.7299 deg

Eccentricy: 0.0074282

Argument of periapsis: 285.9249 deg

Mean anomaly: 227.7824 deg

Mean motion: 13.73868312 rev/day

Mean motion (dot): 0.00000724 rev/day2

B* drag term: 0.00074349 1/REarth

Two-line elements (TLE)

Creation date: May 6, 2025, 3:54 a.m.

Reference frame: TEME

Reference center: EARTH

Epoch: May 5, 2025, 5:15 a.m. UTC

TLE line 0: 0 COSMOS 1275 DEB

TLE line 1: 1 12782U 81053DY 25125.21921256 .00000724 00000-0 74349-3 0 9993

TLE line 2: 2 12782 83.0012 46.7299 0074282 285.9249 227.7824 13.73868312177273

Live tracking on map

Real-time ground track for satellite COSMOS 1275 DEB.

In-orbit conjunctions

A list of the most updated potential collisions computed for object COSMOS 1275 DEB.

Target Orbit TCA Probability of collision Miss distance Type
CZ-6A DEB LEO 2024-12-23 12:43:05 0.002294489 65.0 (m) DEBRIS
FREGAT R/B HEO 2024-06-07 19:03:46 0.0001022671 226.0 (m) ROCKET BODY

Associated space launch

Navigation satellite providing location information for the Tsiklon-B navigation system

COSMOS 1275 DEB was lifted into orbit during the mission ‘Kosmos-3M | Parus 27’, on board a Kosmos-3M space rocket.

The launch took place on June 4, 1981, 3:41 p.m. from 132/2.

For more information about the launch, click the button.

Launch to space Kosmos-3M | Parus 27
Kosmos-3M | Parus 27

Agency: N/A

Status: Launch Successful

Launch date: June 4, 1981, 3:41 p.m. UTC

Rocket: Kosmos-3M

Launch pad: 132/2

Location: Plesetsk Cosmodrome, Russian Federation

...

Latest news about this satellite

There are no fresh news available about this satellite. Check back as we update our databases every day.


Newsletter sign-up

Weekly statistics, charts and insights to help you stay on top of the space industry.